TimeCST,TemperatureF,Dew PointF,Humidity,Sea Level PressureIn,VisibilityMPH,Wind Direction,Wind SpeedMPH,Gust SpeedMPH,PrecipitationIn,Events,Conditions,WindDirDegrees,DateUTC
12:37 AM,24.8,24.8,100,30.19,8.0,NNW,3.5,-,N/A,,Overcast,340,2013-01-25 06:37:00
12:40 AM,24.8,24.8,100,30.19,9.0,NW,3.5,-,N/A,,Overcast,310,2013-01-25 06:40:00
12:55 AM,25.7,25.5,99,30.18,10.0,Calm,Calm,-,N/A,,Overcast,0,2013-01-25 06:55:00
1:55 AM,26.4,26.2,99,30.20,10.0,NW,3.5,-,N/A,,Overcast,310,2013-01-25 07:55:00
2:48 AM,26.6,26.6,100,30.20,10.0,NNE,3.5,-,N/A,,Overcast,20,2013-01-25 08:48:00
2:55 AM,26.6,26.4,99,30.20,10.0,North,3.5,-,N/A,,Overcast,10,2013-01-25 08:55:00
3:55 AM,27.0,25.7,95,30.19,10.0,North,5.8,-,N/A,,Overcast,360,2013-01-25 09:55:00
4:40 AM,26.6,24.8,93,30.20,10.0,North,3.5,-,N/A,,Scattered Clouds,360,2013-01-25 10:40:00
4:55 AM,26.1,24.3,93,30.20,10.0,NNW,4.6,-,N/A,,Partly Cloudy,330,2013-01-25 10:55:00
5:55 AM,25.9,23.5,91,30.23,10.0,NW,3.5,-,N/A,,Clear,320,2013-01-25 11:55:00
6:55 AM,25.0,23.4,94,30.25,10.0,Calm,Calm,-,N/A,,Clear,0,2013-01-25 12:55:00
7:55 AM,25.0,24.4,98,30.26,7.0,Calm,Calm,-,N/A,,Clear,0,2013-01-25 13:55:00
8:55 AM,27.5,25.9,94,30.26,10.0,West,3.5,-,N/A,,Clear,280,2013-01-25 14:55:00
9:55 AM,31.1,23.2,72,30.27,10.0,NNW,4.6,-,N/A,,Clear,330,2013-01-25 15:55:00
10:55 AM,34.7,22.1,60,30.29,10.0,NW,4.6,-,N/A,,Clear,310,2013-01-25 16:55:00
11:55 AM,37.2,22.3,55,30.30,10.0,North,3.5,-,N/A,,Clear,360,2013-01-25 17:55:00
12:55 PM,41.2,22.8,48,30.28,10.0,Variable,3.5,-,N/A,,Clear,0,2013-01-25 18:55:00
1:55 PM,44.8,22.3,41,30.25,10.0,Calm,Calm,-,N/A,,Clear,0,2013-01-25 19:55:00
2:55 PM,48.2,21.9,36,30.23,10.0,Calm,Calm,-,N/A,,Clear,0,2013-01-25 20:55:00
3:55 PM,50.7,22.1,33,30.22,10.0,NNE,3.5,-,N/A,,Clear,30,2013-01-25 21:55:00
4:55 PM,51.4,22.1,32,30.21,10.0,ENE,5.8,-,N/A,,Clear,60,2013-01-25 22:55:00
5:55 PM,48.7,22.6,36,30.22,10.0,ESE,3.5,-,N/A,,Clear,120,2013-01-25 23:55:00
6:55 PM,44.2,23.4,44,30.24,10.0,Calm,Calm,-,N/A,,Clear,0,2013-01-26 00:55:00
7:55 PM,43.7,24.1,46,30.24,10.0,Calm,Calm,-,N/A,,Clear,0,2013-01-26 01:55:00
8:55 PM,41.7,24.3,50,30.25,10.0,Calm,Calm,-,N/A,,Clear,0,2013-01-26 02:55:00
9:55 PM,39.9,24.3,54,30.26,10.0,Calm,Calm,-,N/A,,Clear,0,2013-01-26 03:55:00
10:55 PM,40.3,24.4,53,30.26,10.0,Calm,Calm,-,N/A,,Clear,0,2013-01-26 04:55:00
11:55 PM,38.8,26.1,60,30.27,10.0,SSW,3.5,-,N/A,,Clear,200,2013-01-26 05:55:00